Flag for U.S.A. Weather past 2 weeks in Tuscaloosa, Alabama, U.S.A.

Now
88 °F

Sunny.


Feels Like: 96 °F
Forecast: 72 / 94 °F
Wind: No wind

Location: Tuscaloosa Municipal Airport

Current Time: Sep 4, 2015 at 11:42:34 AM

Latest Report: Sep 4, 2015 at 10:53 AM


Visibility: 7 mi

Pressure: 30.01 "Hg

Humidity: 61%

Dew point: 73 °F

Location of TuscaloosaLocation

Historic Weather in Tuscaloosa — Graph

°F

Tuscaloosa temperature yesterday

Maximum temperature yesterday: 93 °F (at 3:53 PM)
Minimum temperature yesterday: 74 °F (at 10:53 PM)
Average temperature yesterday: 82 °F

Past Weeks' High & Low Weather Summary

 TemperatureHumidityPressure
High93 °F (Sep 3, 3:53 PM)97% (Aug 20, 11:53 PM)30.13 "Hg (Aug 20, 11:53 PM)
Low60 °F (Aug 26, 2:53 AM)36% (Aug 25, 3:53 PM)29.90 "Hg (Sep 3, 4:53 PM)
Average78 °F75%30.02 "Hg
* Reported Aug 20 9:03 AM — Sep 4 9:53 AM, Tuscaloosa, Weather by CustomWeather, © 2015

Note: Actual official high and low records may vary slightly from our data, if they occured in-between our weather recording intervals... More about our weather records

Advertising

Tuscaloosa weather history for previous 24 hours

 ConditionsComfort  
Time TempWeatherWind HumidityBarometerVisibility
9:53 AM
Fri, Sep 4
84 °FSunny.6 mph67%30.01 "Hg7 mi
8:53 AM78 °FSunny.No wind82%30.01 "Hg6 mi
7:53 AM74 °FFog.No wind91%30.01 "Hg4 mi
6:53 AM72 °FFog.No wind93%30.00 "Hg3 mi
5:53 AM71 °FFog.No wind93%29.98 "Hg5 mi
5:02 AM71 °FFog.No wind93%29.98 "Hg2 mi
3:53 AM72 °FFog.No wind93%29.96 "Hg5 mi
2:53 AM72 °FFog.No wind93%29.95 "Hg5 mi
1:53 AM72 °FFog.No wind93%29.95 "Hg4 mi
12:53 AM72 °FFog.3 mph93%29.95 "Hg3 mi
11:53 PM
Thu, Sep 3
74 °FFog.No wind91%29.95 "Hg6 mi
10:53 PM74 °FClear.No wind91%29.94 "Hg7 mi
9:53 PM75 °FClear.No wind88%29.94 "Hg7 mi
8:53 PM78 °FClear.No wind79%29.93 "Hg8 mi
7:53 PM79 °FSunny.3 mph77%29.91 "Hg9 mi
6:53 PM84 °FSunny.8 mph65%29.90 "Hg8 mi
5:53 PM92 °FSunny.3 mph43%29.91 "Hg10 mi
4:53 PM93 °FSunny.8 mph44%29.90 "Hg9 mi
3:53 PM93 °FSunny.8 mph44%29.91 "Hg9 mi
2:53 PM91 °FBroken clouds.3 mph47%29.94 "Hg10 mi
1:53 PM92 °FPartly sunny.3 mph46%29.95 "Hg8 mi
12:53 PM92 °FPartly sunny.No wind49%29.97 "Hg8 mi
11:53 AM91 °FPassing clouds.3 mph50%29.99 "Hg8 mi
Weather by CustomWeather, © 2015

See weather overviewHow to use our weather pages